Time_in_sec,Mx,My,Mz
1314271012.64273858,-0.52254045,-0.01885359,-0.86290455
1314271012.70048094,-0.52200896,-0.01346114,-0.86238414
1314271012.75245547,-0.52135617,-0.01750464,-0.86099178
1314271012.80081415,-0.52157015,-0.01545567,-0.86433220
1314271012.85250521,-0.52181935,-0.01520573,-0.86395067
1314271012.90217996,-0.52386171,-0.01809149,-0.86232281
1314271012.95250440,-0.52249080,-0.01811006,-0.86197960
1314271013.00050187,-0.52392823,-0.01971032,-0.86363983
1314271013.04047799,-0.52202600,-0.01634446,-0.86302632
1314271013.10162330,-0.52098155,-0.01534529,-0.86350435
1314271013.15245843,-0.52098936,-0.01750172,-0.86163354
1314271013.20051718,-0.52320302,-0.01771915,-0.86255312
1314271013.25360942,-0.52307248,-0.01809626,-0.86267543
1314271013.30201316,-0.52122098,-0.01735628,-0.86323804
1314271013.34961081,-0.52067894,-0.01736249,-0.86320716
1314271013.40049624,-0.52230310,-0.01859925,-0.86342299
1314271013.45246434,-0.52235627,-0.01798592,-0.86197281
1314271013.50047946,-0.52222586,-0.01936704,-0.86222023
1314271013.55371857,-0.52285087,-0.01583086,-0.86320966
1314271013.60047793,-0.52147436,-0.01645366,-0.86511445
1314271013.65361929,-0.52186584,-0.01848428,-0.86286885
1314271013.69980025,-0.52269477,-0.01847193,-0.86318117
1314271013.74985147,-0.52337718,-0.01783571,-0.86322474
1314271013.80046988,-0.52239794,-0.01772695,-0.86263973
1314271013.84948778,-0.52145171,-0.01834054,-0.86496663
1314271013.90088916,-0.52288473,-0.01758144,-0.86399370
1314271013.95247006,-0.52236617,-0.01773302,-0.86210781
1314271013.98984790,-0.52181733,-0.01861907,-0.86206996
1314271014.04952502,-0.52211797,-0.01785727,-0.86249030
1314271014.10172105,-0.52092707,-0.01623423,-0.86269957
1314271014.14961815,-0.52367592,-0.01732529,-0.86364311
1314271014.20151877,-0.52255219,-0.01734529,-0.86291641
1314271014.25247073,-0.52171052,-0.01798762,-0.86246616
1314271014.30160594,-0.52277082,-0.01898376,-0.86225408
1314271014.34955668,-0.52121705,-0.01785904,-0.86323410
1314271014.40067410,-0.52114713,-0.01644316,-0.86642110
1314271014.45246148,-0.52243066,-0.01859921,-0.86329776
1314271014.49856901,-0.52385515,-0.01882142,-0.86456990
1314271014.55251026,-0.52257901,-0.01796769,-0.86344337
1314271014.60050821,-0.52195907,-0.01871747,-0.86446267
1314271014.65246272,-0.52322876,-0.01746322,-0.86295402
1314271014.70046687,-0.52305788,-0.01782369,-0.86466438
1314271014.74956465,-0.51984721,-0.01875593,-0.86301690
1314271014.80044293,-0.52201718,-0.01747568,-0.86301744
1314271014.84879494,-0.52303207,-0.01707561,-0.86413836
1314271014.90399075,-0.52125162,-0.01647189,-0.86364388
1314271014.94849467,-0.52288473,-0.01758144,-0.86399370
1314271015.00057220,-0.52364421,-0.01733135,-0.86311120
1314271015.05024076,-0.52064449,-0.01659170,-0.86480111
1314271015.10045266,-0.52125269,-0.01735021,-0.86377001
1314271015.15041828,-0.52135646,-0.01735472,-0.86324579
1314271015.20068407,-0.52104527,-0.01518325,-0.86682218
1314271015.24849176,-0.52196562,-0.01798755,-0.86221564
1314271015.29851079,-0.52075726,-0.01747302,-0.86453599
1314271015.34975696,-0.52184922,-0.01745908,-0.86473078
1314271015.40053082,-0.52142471,-0.01887208,-0.86231077
1314271015.44845867,-0.52282035,-0.01872328,-0.86305398
1314271015.50050831,-0.52357018,-0.01757216,-0.86416537
1314271015.54845548,-0.52157795,-0.01761210,-0.86246139
1314271015.59271097,-0.52156919,-0.01558136,-0.86433119
1314271015.65248871,-0.52257496,-0.01646242,-0.86318928
1314271015.69830561,-0.52189648,-0.01659588,-0.86314964
1314271015.75247002,-0.52244943,-0.01721509,-0.86344159
1314271015.80059743,-0.52325648,-0.01695590,-0.86335695
1314271015.85254478,-0.52165842,-0.01631732,-0.86592108
1314271015.90133238,-0.52336937,-0.01984525,-0.86334199
1314271015.95245314,-0.52184707,-0.01886439,-0.86259991
1314271016.00054646,-0.52179784,-0.01581300,-0.86593276
1314271016.05259943,-0.52198565,-0.01632782,-0.86461443
1314271016.10221362,-0.52241367,-0.01671991,-0.86278063
1314271016.14975595,-0.52271348,-0.01708781,-0.86332506
1314271016.20056367,-0.52155709,-0.01723957,-0.86206537
1314271016.25402355,-0.52059072,-0.01750486,-0.86174333
1314271016.30057979,-0.52212191,-0.01735450,-0.86249423
1314271016.34952378,-0.52211928,-0.01758166,-0.86474526
1314271016.40151048,-0.52259272,-0.01936997,-0.86157846
1314271016.44949937,-0.52301598,-0.01823257,-0.86174351
1314271016.50446558,-0.52276975,-0.01810543,-0.86212802
1314271016.54955769,-0.52127814,-0.01724420,-0.86191696
1314271016.60149598,-0.52278262,-0.01747546,-0.86226594
1314271016.64955139,-0.52433461,-0.01769763,-0.86341286
1314271016.70094180,-0.52052534,-0.01776837,-0.86067748
1314271016.74995327,-0.52307039,-0.01633961,-0.86242324
1314271016.80046797,-0.52111620,-0.01331148,-0.86551487
1314271016.84961009,-0.52078277,-0.01736700,-0.86268294
1314271016.90072155,-0.52340764,-0.01810525,-0.86150175
1314271016.95247340,-0.52352828,-0.01798104,-0.86124450
1314271017.00154305,-0.52223068,-0.01773457,-0.86210006
1314271017.05247378,-0.52176589,-0.01596897,-0.86314684
1314271017.10075188,-0.52234060,-0.01583101,-0.86371064
1314271017.14916539,-0.52235031,-0.01773605,-0.86184180
1314271017.20179439,-0.52174085,-0.01725315,-0.86061800
1314271017.24997044,-0.52228719,-0.01759827,-0.86303192
1314271017.30450010,-0.52293307,-0.01860058,-0.86266375
1314271017.35246730,-0.52013892,-0.01711732,-0.86317819
1314271017.40053701,-0.52122098,-0.01735628,-0.86323804
1314271017.44952703,-0.52350867,-0.01733290,-0.86310345
1314271017.50048542,-0.52130604,-0.01874491,-0.86256999
1314271017.54961514,-0.52190149,-0.01797545,-0.86340475
1314271017.60151911,-0.52099860,-0.01406264,-0.86590016
1314271017.65044713,-0.52139807,-0.01709576,-0.86391264
1314271017.70452285,-0.52126050,-0.01950664,-0.86189920
1314271017.74932313,-0.52219826,-0.01771641,-0.86382109
1314271017.80047441,-0.52002227,-0.01774278,-0.86356449
1314271017.84050059,-0.52092510,-0.01648561,-0.86269754
1314271017.90052867,-0.52093983,-0.01460024,-0.86271238
1314271017.94848776,-0.52144861,-0.01670959,-0.86471355
1314271018.00056887,-0.52170950,-0.01811331,-0.86246514
1314271018.04860473,-0.52107847,-0.01622964,-0.86297321
1314271018.10147357,-0.52101058,-0.01556639,-0.86628729
1314271018.14846444,-0.52073944,-0.01772743,-0.86426806
1314271018.20049191,-0.52306682,-0.01769648,-0.86479837
1314271018.24849963,-0.52337927,-0.01542638,-0.86523056
1314271018.30047131,-0.52136576,-0.01808162,-0.86575878
1314271018.34951591,-0.52212435,-0.01579928,-0.86687905
1314271018.40103626,-0.52139252,-0.01453804,-0.86803943
1314271018.44855547,-0.52078891,-0.01646294,-0.86494285
1314271018.49931264,-0.52057916,-0.01785923,-0.86386037
1314271018.55037785,-0.52270687,-0.01781774,-0.86557209
1314271018.60052800,-0.52156961,-0.01743948,-0.86683536
1314271018.64849734,-0.52166432,-0.01556317,-0.86592698
1314271018.70049429,-0.52168530,-0.01794372,-0.86657315
1314271018.75019646,-0.52133620,-0.01668237,-0.86735773
1314271018.80054021,-0.52126211,-0.02008514,-0.86653316
1314271018.85353160,-0.52076828,-0.01493649,-0.86667573
1314271018.90465593,-0.52269691,-0.01706662,-0.86531204
1314271018.95023131,-0.52228254,-0.01807681,-0.86528099
1314271019.00095081,-0.52148372,-0.01818457,-0.86775255
1314271019.04945827,-0.52139759,-0.01591761,-0.86829454
1314271019.10046601,-0.52275968,-0.01703027,-0.86862892
1314271019.14993620,-0.52203953,-0.01742269,-0.86792237
1314271019.20046735,-0.52176082,-0.01627338,-0.86990285
1314271019.24905849,-0.52193445,-0.01668977,-0.86606652
1314271019.30385661,-0.52033949,-0.01768213,-0.86888379
1314271019.35249758,-0.52073407,-0.01717774,-0.86864495
1314271019.40065169,-0.52313346,-0.01715736,-0.86811918
1314271019.45247221,-0.52126813,-0.01717304,-0.86854291
1314271019.50153041,-0.52210879,-0.01565239,-0.86886710
1314271019.54993248,-0.52093279,-0.01831799,-0.86758769
1314271019.60068583,-0.52109802,-0.01439578,-0.86987901
1314271019.64960599,-0.52156490,-0.01691401,-0.86895931
1314271019.70171046,-0.52134699,-0.01529977,-0.86736858
1314271019.75357485,-0.52078855,-0.01729282,-0.86957484
1314271019.80048561,-0.52202195,-0.01652317,-0.86978334
1314271019.85251141,-0.52131373,-0.01741533,-0.86933881
1314271019.90048647,-0.52243412,-0.01691829,-0.86768353
1314271019.94953084,-0.52222633,-0.01806320,-0.86660308
1314271020.00045419,-0.51960063,-0.01529270,-0.86978704
1314271020.05362034,-0.52060944,-0.01680070,-0.86877316
1314271020.10178518,-0.52115339,-0.01654311,-0.86880606
1314271020.15257502,-0.52190602,-0.01717286,-0.86791664
1314271020.20050335,-0.52142125,-0.01807101,-0.86668968
1314271020.25248837,-0.52169150,-0.01703966,-0.86883307
1314271020.30050015,-0.52192879,-0.01729400,-0.86831456
1314271020.34964871,-0.52219307,-0.01601279,-0.87032694
1314271020.40048552,-0.52218503,-0.01817225,-0.86819017
1314271020.45259070,-0.52258551,-0.01691371,-0.86795723
1314271020.49962282,-0.52066261,-0.01618737,-0.86732304
1314271020.54960895,-0.52171600,-0.01705933,-0.86697900
1314271020.60152769,-0.52163118,-0.01552079,-0.86990100
1314271020.64851904,-0.52195942,-0.01540560,-0.86859536
1314271020.70080876,-0.52171737,-0.01879176,-0.86948413
1314271020.74950147,-0.52161151,-0.01703060,-0.86975616
1314271020.80099058,-0.51978868,-0.01565761,-0.87072271
1314271020.84865737,-0.51910800,-0.01719638,-0.86855221
1314271020.90154910,-0.52247453,-0.01793895,-0.86622059
1314271020.94861746,-0.52116036,-0.01666728,-0.86893809
1314271021.00111103,-0.52109885,-0.01642803,-0.86787617
1314271021.04855323,-0.52265781,-0.01677437,-0.86915505
1314271021.10150647,-0.52222085,-0.01650949,-0.87085491
1314271021.14850950,-0.52327716,-0.01700438,-0.87051386
1314271021.20047498,-0.52111274,-0.01667638,-0.86814016
1314271021.24921727,-0.52234232,-0.01841753,-0.86859488
1314271021.29842234,-0.52103579,-0.01729426,-0.86919135
1314271021.34918714,-0.52146703,-0.01615535,-0.86948943
1314271021.40051675,-0.52306801,-0.01641686,-0.86692822
1314271021.44849181,-0.52195269,-0.01829347,-0.86883861
1314271021.50049353,-0.52156985,-0.01728956,-0.86908931
1314271021.54995680,-0.52077234,-0.01644175,-0.86692983
1314271021.60150933,-0.52293897,-0.01536444,-0.87143439
1314271021.65331745,-0.52113658,-0.01667183,-0.86853909
1314271021.70161390,-0.52284670,-0.01816752,-0.86796284
1314271021.74849343,-0.52212667,-0.01640199,-0.86926013
1314271021.80154061,-0.52204847,-0.01729548,-0.86805636
1314271021.84849763,-0.52180231,-0.01817236,-0.86856592
1314271021.90147543,-0.52165586,-0.01754849,-0.86829716
1314271021.95247316,-0.52137488,-0.01680048,-0.86802167
1314271022.00044608,-0.52173764,-0.01529814,-0.86712581
1314271022.04974914,-0.51984799,-0.01730217,-0.86965376
1314271022.10196042,-0.52048373,-0.01554534,-0.86877531
1314271022.14952898,-0.52254719,-0.01764970,-0.86967236
1314271022.20061445,-0.52153832,-0.01930366,-0.86880755
1314271022.25247216,-0.52051228,-0.01707028,-0.86717540
1314271022.30048275,-0.52270716,-0.01766782,-0.86782604
1314271022.35006595,-0.52163988,-0.01654751,-0.86790609
1314271022.40161967,-0.52085280,-0.01414295,-0.87026447
1314271022.44983649,-0.52207422,-0.01703955,-0.86845726
1314271022.50194979,-0.52143115,-0.01781810,-0.86682463
1314271022.54932618,-0.52282387,-0.01804637,-0.86756486
1314271022.60060930,-0.52108294,-0.01542705,-0.86748511
1314271022.64059639,-0.52234030,-0.01766490,-0.86846781
1314271022.70048857,-0.52452677,-0.01540182,-0.86635625
1314271022.74957156,-0.52166039,-0.01606593,-0.86592305
1314271022.80054736,-0.52061313,-0.01745187,-0.86664826
1314271022.85361242,-0.52250218,-0.01642762,-0.86649835
1314271022.90193677,-0.52188015,-0.01642478,-0.86739063
1314271022.95246172,-0.52092177,-0.01668855,-0.86720157
1314271023.00059915,-0.52397901,-0.01817022,-0.86656958
1314271023.05247998,-0.52053201,-0.01556047,-0.86732024
1314271023.10148621,-0.52046669,-0.01682799,-0.86637950
1314271023.14975405,-0.52204484,-0.01694589,-0.86559469
1314271023.20151925,-0.51994663,-0.01404722,-0.86854398
1314271023.24930811,-0.52122235,-0.01705817,-0.86766690
1314271023.29976511,-0.52185786,-0.01745918,-0.86478531
1314271023.34923053,-0.52242076,-0.01667176,-0.86734051
1314271023.40061927,-0.52293825,-0.01782221,-0.86492264
1314271023.45248270,-0.52153599,-0.01870094,-0.86642653
1314271023.50050998,-0.52276337,-0.01768143,-0.86650395
1314271023.54949045,-0.52223325,-0.01718336,-0.86660999
1314271023.60147643,-0.52204055,-0.01729700,-0.86792338
1314271023.64937687,-0.52170610,-0.01731223,-0.86684406
1314271023.70154262,-0.52231741,-0.01653974,-0.86794472
1314271023.74960160,-0.52146584,-0.01743497,-0.86735952
1314271023.80159783,-0.52073866,-0.01669920,-0.86639595
1314271023.84851027,-0.52100170,-0.01569359,-0.86615330
1314271023.90150309,-0.52084345,-0.01657802,-0.86587274
1314271023.95245457,-0.52027959,-0.01633740,-0.86544484
1314271024.00074887,-0.51970202,-0.01369048,-0.86675674
1314271024.04956937,-0.52123141,-0.01680355,-0.86788094
1314271024.09837198,-0.52160919,-0.01642788,-0.86737514
1314271024.14893222,-0.52247453,-0.01793895,-0.86622059
1314271024.20082402,-0.52225876,-0.01808136,-0.86488199
1314271024.24848151,-0.52309060,-0.01769193,-0.86519730
1314271024.30065632,-0.52362376,-0.01881694,-0.86521935
1314271024.34980536,-0.52170813,-0.01806487,-0.86697114
1314271024.40070724,-0.52222043,-0.01881735,-0.86659718
1314271024.44963050,-0.52378511,-0.01956347,-0.86575311
1314271024.49823093,-0.52238840,-0.01883395,-0.86488384
1314271024.54947090,-0.52125502,-0.01795293,-0.86615103
1314271024.60049057,-0.52112442,-0.01732603,-0.86614823
1314271024.65246820,-0.52132595,-0.01608117,-0.86484373
1314271024.70223546,-0.52042788,-0.01886783,-0.86371177
1314271024.74968815,-0.52136147,-0.01773028,-0.86337578
1314271024.80044794,-0.52108300,-0.01643106,-0.86761022
1314271024.85011125,-0.52151197,-0.01569344,-0.86565232
1314271024.90213203,-0.52179766,-0.01696693,-0.86380386
1314271024.95248342,-0.52242690,-0.01694403,-0.86529756
1314271025.00051069,-0.52216053,-0.01646860,-0.86303312
1314271025.05254793,-0.52109551,-0.01494699,-0.86536908
1314271025.10049415,-0.52137733,-0.01772725,-0.86364174
1314271025.14947104,-0.52287781,-0.01846128,-0.86398685
1314271025.20160985,-0.52129632,-0.01784388,-0.86456394
1314271025.24953580,-0.52134460,-0.01785901,-0.86310887
1314271025.30449295,-0.52197778,-0.01733335,-0.86460650
1314271025.34957862,-0.52099061,-0.01722611,-0.86388850
1314271025.40084529,-0.52132881,-0.01886605,-0.86296797
1314271025.45250130,-0.52151382,-0.01760001,-0.86365050
1314271025.50059271,-0.52235562,-0.01796170,-0.86422580
1314271025.54963684,-0.52213687,-0.01848118,-0.86288434
1314271025.60151505,-0.51964355,-0.01407817,-0.86582291
1314271025.65259933,-0.51993424,-0.01572721,-0.86410445
1314271025.70047736,-0.52136606,-0.01725174,-0.86112678
1314271025.75004244,-0.52357709,-0.01769633,-0.86429733
1314271025.80053186,-0.52245057,-0.01909743,-0.86369276
1314271025.84886384,-0.52059495,-0.01685218,-0.86400127
1314271025.90058684,-0.52249473,-0.01760729,-0.86198354
1314271025.94974089,-0.52355039,-0.01807796,-0.86389542
1314271026.00047922,-0.52058417,-0.01823479,-0.86399037
1314271026.04929352,-0.52151167,-0.01584336,-0.86339831
1314271026.10438585,-0.52172542,-0.01494832,-0.86460984
1314271026.14949059,-0.52221483,-0.01773760,-0.86183411
1314271026.20162082,-0.52021891,-0.01712638,-0.86225504
1314271026.25248814,-0.52236420,-0.01798440,-0.86210585
1314271026.30059910,-0.52204490,-0.01696837,-0.86342037
1314271026.34968257,-0.52197582,-0.01758473,-0.86460453
1314271026.40162897,-0.52143288,-0.01455468,-0.86645132
1314271026.44962716,-0.52229804,-0.01721968,-0.86316788
1314271026.50108123,-0.52093214,-0.01761380,-0.86295468
1314271026.54960895,-0.52241004,-0.01707276,-0.86503065
1314271026.60156250,-0.52225769,-0.01720303,-0.86475593
1314271026.65269613,-0.51962960,-0.01699178,-0.86368018
1314271026.70049834,-0.52272141,-0.01708629,-0.86345804
1314271026.75244403,-0.52163351,-0.01860550,-0.86351734
1314271026.80050254,-0.52334839,-0.01746470,-0.86269581
1314271026.84919262,-0.52183598,-0.01623094,-0.86208874
1314271026.89852524,-0.52147305,-0.01572525,-0.86273438
1314271026.94953609,-0.52271122,-0.01748911,-0.86106908
1314271027.00051260,-0.52141666,-0.01786958,-0.86205268
1314271027.04847169,-0.52118623,-0.01673540,-0.86257809
1314271027.10065389,-0.52132672,-0.01710941,-0.86271584
1314271027.14955974,-0.52183688,-0.01926720,-0.86021101
1314271027.20046306,-0.52252167,-0.01607174,-0.86451429
1314271027.25032449,-0.51964313,-0.01638603,-0.86156511
1314271027.29841566,-0.52121377,-0.01738202,-0.86085206
1314271027.34949565,-0.52218229,-0.01571142,-0.86330497
1314271027.40050340,-0.52064127,-0.01711869,-0.86254418
1314271027.43938303,-0.52180833,-0.01774227,-0.86181092
1314271027.50048661,-0.52303374,-0.01697414,-0.86188638
1314271027.55021620,-0.52029616,-0.01635859,-0.86345780
1314271027.59247732,-0.52133662,-0.01685651,-0.86285079
1314271027.64959407,-0.52155501,-0.01548293,-0.86181325
1314271027.69825506,-0.52280629,-0.01646690,-0.86253977
1314271027.74847317,-0.52101117,-0.01774855,-0.86203051
1314271027.80078506,-0.52271062,-0.01846890,-0.86344713
1314271027.85247755,-0.52005261,-0.01600429,-0.86159128
1314271027.90057683,-0.52192599,-0.01799513,-0.86155069
1314271027.95014858,-0.52052039,-0.01739282,-0.86054748
1314271028.00104427,-0.51968294,-0.01422050,-0.86423385
1314271028.04960060,-0.52004284,-0.01826522,-0.86170650
1314271028.10011148,-0.52144235,-0.01660964,-0.86232853
1314271028.14951515,-0.52140284,-0.01862525,-0.86191380
1314271028.20047832,-0.52340263,-0.01772969,-0.86137170
1314271028.25259376,-0.52288741,-0.01835830,-0.86186779
1314271028.30049086,-0.52315140,-0.01722700,-0.86162621
1314271028.34999418,-0.51954228,-0.01600444,-0.86209232
1314271028.40067291,-0.52226508,-0.01750135,-0.86038101
1314271028.45258975,-0.52236694,-0.01876126,-0.85997993
1314271028.50209999,-0.52106273,-0.01824070,-0.86295742
1314271028.55272770,-0.52145606,-0.01801192,-0.86046368
1314271028.60058665,-0.52187562,-0.01622335,-0.86275363
1314271028.65246701,-0.52030569,-0.01525159,-0.86121368
1314271028.70054293,-0.52205551,-0.01774371,-0.86142743
1314271028.75244021,-0.52341253,-0.01747679,-0.86150670
1314271028.80059195,-0.52136630,-0.01609781,-0.86325562
1314271028.85361481,-0.52237898,-0.01609903,-0.86212063
1314271028.89883399,-0.52329385,-0.01734962,-0.86176592
1314271028.94987440,-0.52293676,-0.01925174,-0.86053878
1314271029.00102949,-0.52308410,-0.01874591,-0.86068344
1314271029.05248237,-0.52107453,-0.01673241,-0.86296928
1314271029.10062265,-0.52092808,-0.01610854,-0.86270052
1314271029.14971256,-0.52217412,-0.01686686,-0.86104310
1314271029.20148182,-0.52052855,-0.01724138,-0.86293441
1314271029.25246310,-0.52138895,-0.01837690,-0.86164981
1314271029.30171466,-0.52253437,-0.01759971,-0.86264843
1314271029.34973502,-0.52149397,-0.01710179,-0.86325550
1314271029.40086198,-0.52114952,-0.01636591,-0.86191612
1314271029.45261288,-0.52176064,-0.01674735,-0.86088794
1314271029.50054979,-0.52267861,-0.01862488,-0.86066127
1314271029.54957628,-0.52225047,-0.01722877,-0.86236995
1314271029.60044217,-0.52038032,-0.01471095,-0.86466748
1314271029.64951015,-0.52077574,-0.01623881,-0.86242586
1314271029.70156717,-0.52311879,-0.01836277,-0.86121833
1314271029.75350690,-0.52173704,-0.01875992,-0.86073917
1314271029.80059981,-0.52188349,-0.01938380,-0.86100793
1314271029.85248232,-0.52190328,-0.01887800,-0.86127782
1314271029.90047050,-0.52201897,-0.01521627,-0.86276925
1314271029.94964743,-0.52143645,-0.01736378,-0.86232263
1314271030.00052500,-0.52329886,-0.01772518,-0.86189592
1314271030.04856634,-0.52144533,-0.01623256,-0.86233151
1314271030.10163164,-0.52075177,-0.01423533,-0.86177671
1314271030.15029907,-0.52201986,-0.01825254,-0.86089152
1314271030.20045805,-0.52321976,-0.01658641,-0.86269498
1314271030.24959373,-0.52230972,-0.01786932,-0.86117595
1314271030.30049491,-0.52087641,-0.01877834,-0.85989487
1314271030.34966969,-0.52041286,-0.01673714,-0.86319661
1314271030.40046930,-0.52171153,-0.01469997,-0.86434585
1314271030.44849968,-0.52152544,-0.01824965,-0.86165851
1314271030.50046611,-0.52311766,-0.01648043,-0.86096716
1314271030.55013704,-0.52039081,-0.01764424,-0.86067075
1314271030.60042429,-0.52279776,-0.01744821,-0.86478490
